DW3212 Weather Reports


time (UTC)temp
C
wind
direction
speed
KPH
gust
KPH
rain 1hr
cm
rain 24hr
cm
rain mn
cm
humidity
%
barometer
mb
20260509064602 0 0.0 0.0 0.00 0.00 0.00 79 1011.9
20260509063111 0 0.0 0.0 0.00 0.00 0.00 82 1011.8
20260509061604 0 0.0 0.0 0.00 0.00 0.00 83 1012.0
20260509060100 0 0.0 0.0 0.00 0.00 0.00 83 1012.2
20260509054606 0 0.0 0.0 0.00 0.00 0.00 83 1012.3
20260509053133 0 0.0 0.0 0.00 0.00 0.00 82 1012.3
20260509051557 0 0.0 0.0 0.00 0.00 0.00 81 1012.3
20260509050057 1 0.0 0.0 0.00 0.00 0.00 79 1012.3
20260509044554 2 0.0 0.0 0.00 0.00 0.00 74 1012.2
20260509043107 2 0.0 0.0 0.00 0.00 0.00 71 1012.0
20260509041602 2 0.0 0.0 0.00 0.00 0.00 72 1011.9
20260509040109 2 0.0 0.0 0.00 0.00 0.00 71 1011.8
20260509034604 3 0.0 0.0 0.00 0.00 0.00 69 1011.7
20260509033054 3 0.0 0.0 0.00 0.00 0.00 70 1011.8
20260509031605 3 0.0 0.0 0.00 0.00 0.00 71 1011.8
20260509030056 3 0.0 0.0 0.00 0.00 0.00 70 1011.8
20260509024554 3 0.0 0.0 0.00 0.00 0.00 70 1011.6
20260509023057 3 0.0 0.0 0.00 0.00 0.00 71 1011.6
20260509021600 3 0.0 0.0 0.00 0.00 0.00 73 1011.5
20260509020056 2 0.0 0.0 0.00 0.00 0.00 76 1011.3
20260509014600 2 0.0 0.0 0.00 0.00 0.00 74 1011.1
20260509013103 3 0.0 0.0 0.00 0.00 0.00 73 1010.9
20260509011558 2 0.0 0.0 0.00 0.00 0.00 74 1010.9
20260509010058 3 0.0 0.0 0.00 0.00 0.00 70 1010.7
20260509004601 3 0.0 0.0 0.00 0.00 0.00 69 1010.3
20260509003101 4 0.0 0.0 0.00 0.00 0.00 68 1010.2
20260509001558 4 0.0 0.0 0.00 0.00 0.00 67 1010.1
20260509000059 5 0.0 0.0 0.00 0.00 0.00 66 1010.0
20260508234557 5 0.0 0.0 0.00 0.00 0.00 66 1009.9
20260508233106 5 0.0 0.0 0.00 0.00 0.00 64 1009.8
20260508231556 5 0.0 0.0 0.00 0.00 0.00 64 1009.6
20260508224555 5 0.0 0.0 0.00 0.00 0.00 66 1009.4
20260508223054 5 0.0 0.0 0.00 0.00 0.00 68 1009.4
20260508221555 5 0.0 0.0 0.00 0.00 0.00 66 1009.5
20260508220100 6 0.0 0.0 0.00 0.00 0.00 66 1009.4
20260508214559 6 0.0 0.0 0.00 0.00 0.00 68 1009.3
20260508213055 6 0.0 0.0 0.00 0.00 0.00 63 1009.2
20260508211556 6 0.0 0.0 0.00 0.00 0.00 67 1009.2
20260508204556 6 0.0 0.0 0.00 0.00 0.00 63 1009.0
20260508203102 7 0.0 0.0 0.00 0.00 0.00 53 1008.7
20260508201556 7 0.0 0.0 0.00 0.00 0.00 53 1008.4
20260508200058 7 0.0 0.0 0.00 0.00 0.00 52 1008.4
20260508194556 8 0.0 0.0 0.00 0.00 0.00 52 1008.5
20260508193112 8 0.0 0.0 0.00 0.00 0.00 52 1008.4
20260508191608 8 0.0 0.0 0.00 0.00 0.00 54 1008.3
20260508190059 7 0.0 0.0 0.00 0.00 0.00 55 1008.6
20260508184557 6 0.0 0.0 0.00 0.00 0.00 55 1008.9
20260508183056 7 0.0 0.0 0.00 0.00 0.00 57 1009.1
20260508181559 7 0.0 0.0 0.00 0.00 0.00 55 1009.0
20260508180057 7 0.0 0.0 0.00 0.00 0.00 54 1008.8
20260508174556 8 0.0 0.0 0.00 0.00 0.00 49 1008.8
20260508173059 7 0.0 0.0 0.00 0.00 0.00 54 1008.9
20260508171606 6 0.0 0.0 0.00 0.00 0.00 55 1009.0
20260508170101 6 0.0 0.0 0.00 0.00 0.00 55 1009.0
20260508164557 6 0.0 0.0 0.00 0.00 0.00 58 1009.0
20260508163058 6 0.0 0.0 0.00 0.00 0.00 48 1009.0
20260508161556 6 0.0 0.0 0.00 0.00 0.00 51 1008.9
20260508160058 6 0.0 0.0 0.00 0.00 0.00 48 1008.9
20260508154600 7 0.0 0.0 0.00 0.00 0.00 50 1008.8
20260508153056 7 0.0 0.0 0.00 0.00 0.00 49 1008.8
20260508151558 7 0.0 0.0 0.00 0.00 0.00 49 1008.7
20260508150057 7 0.0 0.0 0.00 0.00 0.00 52 1008.6
20260508144555 7 0.0 0.0 0.00 0.00 0.00 47 1008.4
20260508143104 7 0.0 0.0 0.00 0.00 0.00 50 1008.5
20260508141558 6 0.0 0.0 0.00 0.00 0.00 53 1008.5
20260508140101 6 0.0 0.0 0.00 0.00 0.00 50 1008.7
20260508134559 6 0.0 0.0 0.00 0.00 0.00 51 1008.8
20260508133056 6 0.0 0.0 0.00 0.00 0.00 51 1009.0
20260508131603 6 0.0 0.0 0.00 0.00 0.00 59 1009.0
20260508130111 6 0.0 0.0 0.00 0.00 0.00 62 1009.0
20260508124558 4 0.0 0.0 0.00 0.00 0.00 64 1008.8
20260508123105 3 0.0 0.0 0.00 0.00 0.00 71 1009.0
20260508121607 2 0.0 0.0 0.00 0.00 0.00 74 1009.2
20260508120058 1 0.0 0.0 0.00 0.00 0.00 75 1009.2
20260508114557 1 0.0 0.0 0.00 0.03 0.00 72 1009.2
20260508113102 1 0.0 0.0 0.00 0.03 0.00 70 1009.1
20260508111557 1 0.0 0.0 0.00 0.03 0.00 69 1008.9
20260508110057 1 0.0 0.0 0.00 0.03 0.00 69 1008.8
20260508104621 1 0.0 0.0 0.00 0.03 0.00 68 1008.6
20260508103056 1 0.0 0.0 0.00 0.03 0.00 67 1008.4
20260508101554 1 0.0 0.0 0.00 0.03 0.00 68 1008.2
20260508100057 1 0.0 0.0 0.00 0.03 0.00 69 1007.9
20260508094556 1 0.0 0.0 0.00 0.03 0.00 67 1007.9
20260508093101 1 0.0 0.0 0.00 0.03 0.00 67 1007.9
20260508091601 1 0.0 0.0 0.00 0.03 0.00 66 1007.6
20260508090108 1 0.0 0.0 0.00 0.03 0.00 64 1007.6
20260508084556 1 0.0 0.0 0.00 0.03 0.00 64 1007.6
20260508083113 2 0.0 0.0 0.00 0.03 0.00 63 1007.6
20260508081601 2 0.0 0.0 0.00 0.03 0.00 62 1007.4
20260508080111 2 0.0 0.0 0.00 0.03 0.00 62 1007.3
20260508074556 2 0.0 0.0 0.00 0.03 0.00 61 1007.4
20260508073055 2 0.0 0.0 0.00 0.03 0.00 61 1007.3
20260508071603 2 0.0 0.0 0.00 0.03 0.00 61 1007.2
20260508070141 2 0.0 0.0 0.00 0.03 0.00 61 1006.9